[[{"header":{"parameterUnit":"m.s-1","parameterCategory":1,"la1":30.2991,"la2":30.254,"lo1":-89.0895,"lo2":-89.0444,"dy":0.0017,"dx":0.0017,"nx":28,"ny":28,"refTime":"2024-02-19T09:00:00:Z","depth":0,"parameterNumber":2,"parameterNumberName":"U-component_of_WINDS"},"data":[0,0,0,0,0,0,0,0,0,0,0,0,0,0,0,0,0,0,0,0,0,0,0,0,0,0,0,0,0,0,0,0,0,0,0,0,0,0,0,0,0,0,0,0,0,0,0,0,0,0,0,0,0,0,0,0,0,0,-0.4692,-0.4692,0,-0.4742,-0.4742,-0.4743,-0.4725,-0.4724,-0.4723,-0.4722,-0.4775,-0.4777,-0.478,0,0,0,0,0,0,0,0,0,0,0,0,0,-0.458,-0.4582,-0.4691,-0.4692,-0.4693,-0.4742,-0.4742,-0.4743,-0.4725,-0.4724,-0.4723,-0.4721,-0.4774,-0.4777,-0.478,0,0,0,0,0,0,0,0,0,0,0,0,0,-0.4629,-0.4583,-0.4691,-0.469,-0.469,-0.4742,-0.4742,-0.4743,-0.4726,-0.4724,-0.4722,-0.4721,-0.4773,-0.4777,-0.478,-0.4837,0,0,-0.4791,-0.4793,0,0,0,0,0,0,0,0,-0.4627,-0.4634,-0.4689,-0.469,-0.469,-0.4725,-0.4723,-0.4775,-0.4726,-0.4712,-0.4722,-0.472,-0.476,-0.4764,-0.4778,-0.4839,-0.4842,-0.4792,-0.4794,-0.4796,-0.4797,0,0,0,0,0,0,0,-0.4623,-0.4631,-0.4711,-0.469,-0.4691,-0.4687,-0.4692,-0.4732,-0.4745,-0.4713,-0.4712,-0.4718,-0.476,-0.4774,-0.4779,-0.4842,-0.4792,-0.4795,-0.4797,-0.4799,-0.4952,-0.4954,0,0,0,0,0,0,-0.462,-0.4629,-0.471,-0.4713,-0.4654,-0.469,-0.4696,-0.4716,-0.4744,-0.4747,-0.472,-0.4717,-0.4769,-0.4774,-0.4781,-0.4849,-0.4796,-0.4799,-0.4801,-0.495,-0.4952,-0.4954,0,0,0,0,0,0,-0.4617,-0.4627,-0.4708,-0.467,-0.468,-0.4694,-0.4717,-0.4718,-0.4732,-0.4749,-0.4751,-0.4732,-0.4768,-0.4775,-0.4823,-0.485,-0.4801,-0.4804,-0.4948,-0.4951,-0.4953,-0.4985,0,0,0,0,0,0,-0.4614,-0.4626,-0.4648,-0.4671,-0.4682,-0.4749,-0.4718,-0.472,-0.4738,-0.4736,-0.4761,-0.4764,-0.4767,-0.4817,-0.4826,-0.4854,-0.4807,-0.4946,-0.4949,-0.4953,-0.4982,-0.4989,-0.4995,0,0,0,0,0,-0.461,-0.4655,-0.4649,-0.4659,-0.471,-0.4751,-0.4757,-0.4759,-0.4741,-0.4763,-0.4773,-0.4763,-0.4845,-0.4822,-0.4832,-0.4862,-0.4944,-0.4948,-0.4952,-0.4979,-0.4987,-0.4994,0,0,0,0,0,0,-0.4636,-0.4658,-0.4652,-0.4706,-0.4726,-0.4748,-0.4776,-0.4768,-0.4795,-0.4792,-0.4793,-0.4799,-0.4848,-0.4859,-0.4833,-0.4918,-0.4892,-0.4898,-0.4909,-0.4917,-0.4923,-0.492,-0.481,0,0,0,0,0,-0.4648,-0.4679,-0.4697,-0.4743,-0.4753,-0.4763,-0.4781,-0.478,-0.4802,-0.4811,-0.4825,-0.4847,-0.4877,-0.4897,-0.4926,-0.4983,-0.4988,-0.5008,-0.5014,-0.5019,-0.5025,-0.5055,-0.5064,-0.4968,-0.4968,-0.4968,0,0,-0.4673,-0.4689,-0.4709,-0.4748,-0.4764,-0.4797,-0.477,-0.4806,-0.483,-0.4816,-0.4862,-0.4873,-0.4897,-0.4949,-0.4972,-0.496,-0.5053,-0.5025,-0.5029,-0.5032,-0.5061,-0.507,-0.5078,-0.4971,-0.4971,-0.497,0,0,-0.4736,-0.4751,-0.479,-0.4806,-0.4831,-0.4836,-0.4845,-0.4868,-0.4874,-0.492,-0.491,-0.4938,-0.4991,-0.5008,-0.5024,-0.5091,-0.5083,-0.5101,-0.5135,-0.5164,-0.5172,-0.5178,-0.5203,-0.5211,-0.5106,-0.5106,-0.5106,0,-0.4764,-0.4812,-0.4812,-0.4848,-0.4865,-0.4853,-0.4893,-0.4909,-0.4942,-0.4954,-0.494,-0.5005,-0.502,-0.5076,-0.5092,-0.5105,-0.5116,-0.5099,-0.5171,-0.5177,-0.5184,-0.5207,-0.5216,-0.5108,-0.5108,-0.5108,-0.5108,0,-0.4846,-0.4879,-0.4909,-0.4939,-0.496,-0.4998,-0.5003,-0.5024,-0.5021,-0.5028,-0.5074,-0.5092,-0.5124,-0.5137,-0.5135,-0.5192,-0.5184,-0.517,-0.5144,-0.5195,-0.5217,-0.5225,-0.5111,-0.5111,-0.511,-0.5109,0,0,-0.4928,-0.4957,-0.4968,-0.4981,-0.5006,-0.5032,-0.5069,-0.51,-0.5118,-0.514,-0.5171,-0.5215,-0.5202,-0.522,-0.5219,-0.5245,-0.5297,-0.5228,-0.5228,-0.524,-0.5361,-0.5372,-0.5382,-0.5291,-0.5292,-0.5294,-0.5359,0,-0.4993,-0.5058,-0.5058,-0.5118,-0.5148,-0.5136,-0.5168,-0.5187,-0.5194,-0.5221,-0.5229,-0.526,-0.524,-0.5251,-0.5275,-0.5285,-0.5321,-0.528,-0.532,-0.5322,-0.5315,-0.5393,-0.5405,-0.5466,-0.5367,-0.5369,-0.537,0,-0.5078,-0.5102,-0.5165,-0.5184,-0.5197,-0.5226,-0.5254,-0.528,-0.53,-0.5303,-0.5322,-0.5318,-0.5355,-0.5327,-0.5378,-0.5351,-0.5366,-0.5373,-0.5376,-0.5381,-0.5349,-0.5401,-0.5485,-0.5495,-0.5383,-0.5382,-0.5381,0,-0.5132,-0.518,-0.5224,-0.5236,-0.5259,-0.528,-0.5291,-0.5309,-0.5328,-0.5352,-0.5363,-0.5391,-0.5407,-0.5429,-0.5432,-0.5411,-0.5483,-0.5456,-0.5487,-0.5487,-0.5504,-0.5503,-0.5593,-0.5513,-0.5513,-0.5513,-0.5512,0,-0.5206,-0.5245,-0.5249,-0.5276,-0.5319,-0.5318,-0.536,-0.5369,-0.5386,-0.5414,-0.5405,-0.5432,-0.5433,-0.5461,-0.5463,-0.5505,-0.5512,-0.5516,-0.5516,-0.5517,-0.5517,-0.5529,-0.5525,-0.5515,-0.5515,-0.5514,-0.5514,0,-0.5274,-0.5278,-0.5325,-0.5343,-0.5348,-0.5379,-0.5394,-0.542,-0.5425,-0.5461,-0.547,-0.5478,-0.551,-0.5514,-0.5551,-0.5553,-0.5603,-0.5599,-0.5597,-0.5596,-0.5628,-0.5625,-0.573,-0.5743,-0.5653,-0.5654,-0.5655,0,-0.5321,-0.5351,-0.5371,-0.5389,-0.5401,-0.543,-0.5448,-0.5448,-0.5467,-0.5491,-0.5514,-0.5544,-0.5569,-0.562,-0.563,-0.5658,-0.5654,-0.5689,-0.5659,-0.5659,-0.5656,-0.5654,-0.5657,-0.5695,-0.5696,-0.5697,-0.5698,0,-0.5404,-0.5404,-0.5431,-0.5457,-0.5479,-0.55,-0.552,-0.5535,-0.5537,-0.5559,-0.5591,-0.561,-0.5647,-0.5677,-0.5705,-0.5716,-0.5707,-0.5707,-0.5716,-0.5718,-0.5715,-0.5717,-0.5613,-0.5705,-0.5704,-0.5704,-0.5703,-0.5703,-0.5464,-0.5489,-0.5507,-0.5537,-0.5551,-0.557,-0.5594,-0.5602,-0.5628,-0.5658,-0.5656,-0.5691,-0.571,-0.5746,-0.5758,-0.5785,-0.5774,-0.5787,-0.5791,-0.5794,-0.5797,-0.571,-0.579,-0.579,-0.579,-0.579,-0.579,0,-0.5547,-0.5557,-0.5584,-0.5612,-0.5635,-0.5623,-0.5644,-0.5664,-0.5695,-0.5713,-0.5736,-0.5772,-0.5801,-0.5812,-0.5841,-0.586,-0.5857,-0.5868,-0.5867,-0.587,-0.5806,-0.5795,-0.587,-0.587,-0.587,-0.587,-0.587,-0.587,-0.5593,-0.5635,-0.5637,-0.5686,-0.5697,-0.5731,-0.5743,-0.576,-0.5774,-0.5815,-0.5838,-0.5845,-0.586,-0.5889,-0.5915,-0.5917,-0.5928,-0.5941,-0.5942,-0.5882,-0.5874,-0.5866,-0.5857,-0.5943,-0.5943,-0.6003,-0.6004,-0.6004]},{"header":{"parameterUnit":"m.s-1","parameterCategory":1,"la1":30.2991,"la2":30.254,"lo1":-89.0895,"lo2":-89.0444,"dy":0.0017,"dx":0.0017,"nx":28,"ny":28,"refTime":"2024-02-19T09:00:00:Z","depth":0,"parameterNumber":3,"parameterNumberName":"V-component_of_WINDS"},"data":[0,0,0,0,0,0,0,0,0,0,0,0,0,0,0,0,0,0,0,0,0,0,0,0,0,0,0,0,0,0,0,0,0,0,0,0,0,0,0,0,0,0,0,0,0,0,0,0,0,0,0,0,0,0,0,0,0,0,-3.5796,-3.5796,0,-3.5862,-3.5863,-3.5863,-3.5804,-3.5802,-3.58,-3.5797,-3.5863,-3.5867,-3.587,0,0,0,0,0,0,0,0,0,0,0,0,0,-3.5614,-3.5618,-3.5795,-3.5796,-3.5797,-3.5862,-3.5863,-3.5864,-3.5805,-3.5802,-3.5799,-3.5796,-3.5861,-3.5866,-3.5871,0,0,0,0,0,0,0,0,0,0,0,0,0,-3.5688,-3.5619,-3.5795,-3.5776,-3.5775,-3.5862,-3.5863,-3.5864,-3.5805,-3.5802,-3.5798,-3.5795,-3.586,-3.5866,-3.5871,-3.5981,0,0,-3.589,-3.5892,0,0,0,0,0,0,0,0,-3.5684,-3.5695,-3.5778,-3.5777,-3.5776,-3.5821,-3.5823,-3.5903,-3.5806,-3.5794,-3.5797,-3.5793,-3.5852,-3.5858,-3.5878,-3.5984,-3.5986,-3.589,-3.5894,-3.5896,-3.5898,0,0,0,0,0,0,0,-3.5679,-3.5692,-3.5822,-3.5779,-3.5778,-3.5762,-3.5769,-3.5838,-3.5842,-3.5794,-3.579,-3.5799,-3.585,-3.5873,-3.5879,-3.5987,-3.589,-3.5895,-3.5899,-3.5901,-3.6184,-3.6188,0,0,0,0,0,0,-3.5676,-3.5688,-3.582,-3.5824,-3.572,-3.5769,-3.5776,-3.581,-3.5841,-3.5842,-3.5802,-3.5796,-3.5864,-3.5873,-3.5882,-3.6011,-3.5896,-3.5902,-3.5905,-3.618,-3.6185,-3.6189,0,0,0,0,0,0,-3.5673,-3.5689,-3.5817,-3.5755,-3.577,-3.5776,-3.5815,-3.5814,-3.5836,-3.5847,-3.5847,-3.5824,-3.5862,-3.5873,-3.5956,-3.6012,-3.5905,-3.591,-3.6176,-3.6182,-3.6187,-3.627,0,0,0,0,0,0,-3.5668,-3.5688,-3.573,-3.5756,-3.5773,-3.5892,-3.5818,-3.5817,-3.5847,-3.5839,-3.5868,-3.5869,-3.586,-3.5948,-3.5962,-3.6018,-3.5915,-3.6171,-3.6178,-3.6185,-3.6263,-3.6278,-3.6292,0,0,0,0,0,-3.5661,-3.575,-3.5733,-3.5749,-3.5827,-3.5895,-3.5905,-3.5893,-3.5851,-3.5893,-3.59,-3.5868,-3.6004,-3.5957,-3.5973,-3.6031,-3.6167,-3.6176,-3.6185,-3.6256,-3.6275,-3.6291,0,0,0,0,0,0,-3.573,-3.5753,-3.5734,-3.5834,-3.5863,-3.5885,-3.5938,-3.5914,-3.5955,-3.5947,-3.5929,-3.5936,-3.6024,-3.6036,-3.5983,-3.6138,-3.6078,-3.6091,-3.6127,-3.6145,-3.616,-3.6155,-3.592,0,0,0,0,0,-3.5757,-3.5812,-3.5829,-3.5915,-3.5931,-3.5932,-3.5962,-3.595,-3.5979,-3.5991,-3.6004,-3.6033,-3.6081,-3.6114,-3.616,-3.6264,-3.6269,-3.6312,-3.6327,-3.6338,-3.6349,-3.6404,-3.6424,-3.6218,-3.6218,-3.6218,0,0,-3.5813,-3.5832,-3.5868,-3.593,-3.5951,-3.6007,-3.5943,-3.6005,-3.6046,-3.6,-3.608,-3.609,-3.6121,-3.6215,-3.6257,-3.6228,-3.6407,-3.635,-3.6359,-3.6364,-3.6415,-3.6435,-3.6452,-3.6224,-3.6223,-3.6222,0,0,-3.5943,-3.5964,-3.6038,-3.6061,-3.6094,-3.6094,-3.6112,-3.6138,-3.6143,-3.6223,-3.6189,-3.6237,-3.6322,-3.6345,-3.6368,-3.6507,-3.6478,-3.6522,-3.6598,-3.6652,-3.6668,-3.6682,-3.6731,-3.6749,-3.6533,-3.6533,-3.6533,0,-3.6008,-3.6093,-3.6079,-3.6144,-3.6172,-3.6133,-3.6208,-3.623,-3.6276,-3.6295,-3.6262,-3.6367,-3.6385,-3.6484,-3.6517,-3.6537,-3.6556,-3.6518,-3.6667,-3.6681,-3.6694,-3.674,-3.6759,-3.6538,-3.6537,-3.6537,-3.6536,0,-3.6171,-3.6229,-3.6285,-3.6331,-3.6365,-3.6435,-3.6431,-3.6466,-3.6452,-3.6455,-3.6536,-3.6556,-3.6605,-3.6627,-3.6614,-3.6724,-3.6704,-3.6669,-3.6609,-3.6719,-3.6762,-3.678,-3.6545,-3.6543,-3.6542,-3.654,0,0,-3.6346,-3.6384,-3.6405,-3.6425,-3.6459,-3.6503,-3.657,-3.6619,-3.6649,-3.6682,-3.6737,-3.6809,-3.6777,-3.6803,-3.6791,-3.6838,-3.6946,-3.6797,-3.6798,-3.6824,-3.7068,-3.7094,-3.7115,-3.6927,-3.6931,-3.6933,-3.7065,0,-3.6478,-3.6595,-3.6585,-3.6696,-3.6749,-3.6713,-3.6771,-3.6797,-3.6802,-3.6847,-3.6851,-3.6903,-3.6857,-3.6872,-3.6917,-3.6924,-3.6995,-3.6914,-3.6977,-3.698,-3.6971,-3.7138,-3.7166,-3.7289,-3.7082,-3.7085,-3.7087,0,-3.6647,-3.6687,-3.6803,-3.6828,-3.685,-3.6903,-3.6946,-3.699,-3.7018,-3.7018,-3.7047,-3.7027,-3.7093,-3.7031,-3.7121,-3.7067,-3.7092,-3.7099,-3.7103,-3.7108,-3.704,-3.7147,-3.7328,-3.7347,-3.7114,-3.7111,-3.7109,0,-3.6763,-3.6845,-3.6925,-3.6944,-3.6975,-3.7012,-3.7027,-3.7052,-3.7081,-3.7119,-3.7138,-3.7182,-3.7206,-3.724,-3.7232,-3.7188,-3.7324,-3.7262,-3.7325,-3.7325,-3.7355,-3.7353,-3.7542,-3.7372,-3.7372,-3.7371,-3.7371,0,-3.6911,-3.6983,-3.6978,-3.7027,-3.7107,-3.7094,-3.7173,-3.7182,-3.7205,-3.7254,-3.7225,-3.7272,-3.7259,-3.7305,-3.7299,-3.7374,-3.7385,-3.7386,-3.7384,-3.7389,-3.7389,-3.7405,-3.7396,-3.7376,-3.7375,-3.7374,-3.7373,0,-3.7054,-3.7053,-3.7138,-3.7161,-3.7168,-3.7226,-3.7244,-3.729,-3.7292,-3.7355,-3.7369,-3.7372,-3.7425,-3.742,-3.7479,-3.7475,-3.7568,-3.7555,-3.7559,-3.7556,-3.7619,-3.7613,-3.7825,-3.7852,-3.7664,-3.7666,-3.7668,0,-3.7148,-3.7203,-3.7232,-3.7263,-3.7281,-3.7332,-3.7362,-3.735,-3.7383,-3.7419,-3.746,-3.751,-3.755,-3.7635,-3.7642,-3.7687,-3.7675,-3.7746,-3.7681,-3.7684,-3.7675,-3.7672,-3.7677,-3.7759,-3.7761,-3.7763,-3.7764,0,-3.7315,-3.7312,-3.7357,-3.7403,-3.7439,-3.7474,-3.7506,-3.7533,-3.7524,-3.7562,-3.7616,-3.7647,-3.7707,-3.7757,-3.7799,-3.7812,-3.7787,-3.7784,-3.7801,-3.7807,-3.7806,-3.7807,-3.7593,-3.778,-3.7778,-3.7777,-3.7776,-3.7775,-3.7437,-3.7484,-3.7511,-3.7562,-3.7585,-3.7615,-3.7659,-3.7666,-3.7711,-3.776,-3.775,-3.7811,-3.7837,-3.7891,-3.7909,-3.7955,-3.7929,-3.7953,-3.796,-3.7966,-3.7973,-3.7799,-3.7962,-3.7962,-3.7962,-3.7961,-3.7961,0,-3.7602,-3.7618,-3.7665,-3.771,-3.775,-3.7723,-3.7756,-3.7791,-3.7845,-3.7872,-3.7911,-3.7973,-3.8021,-3.8031,-3.8077,-3.8112,-3.8101,-3.8124,-3.8121,-3.8125,-3.7994,-3.7974,-3.8132,-3.8132,-3.8132,-3.8132,-3.8132,-3.8132,-3.7693,-3.7771,-3.7771,-3.7859,-3.7874,-3.7934,-3.7955,-3.7982,-3.8003,-3.8073,-3.8113,-3.812,-3.814,-3.8187,-3.8229,-3.8231,-3.8249,-3.8277,-3.8274,-3.8151,-3.8134,-3.8118,-3.8099,-3.8281,-3.8281,-3.8401,-3.8402,-3.8402]}]]